Miscellaneous Local Product
Issued by NWS North Platte, NE

Home | Current Version | Previous Version | Text Only | Print | Product List | Glossary On
Versions: 1 2 3 4 5 6 7 8 9 10 11 12 13 14 15 16 17 18 19 20 21 22 23 24 25 26 27 28 29 30 31 32 33 34 35 36 37 38 39 40 41 42 43 44 45 46 47 48 49 50
000
AXUS43 KLBF 221410
MISLBF


WESTERN AND NORTH CENTRAL NEBRASKA HOURLY WEATHER ROUNDUP
NATIONAL WEATHER SERVICE NORTH PLATTE NE
800 AM CST MON DEC 22 2014

***STATIONS NOT REPORTING VARIABLES SUCH AS SKY/WEATHER OR
PRESSURE ARE PROVIDED BY THE NEBRASKA DEPARTMENT OF
ROADS...RAWS...AND APRS NETWORKS...AND ARE NOT UNDER
NATIONAL WEATHER SERVICE QUALITY CONTROL***

...OBSERVATIONS IN AND NEAR THE EASTERN PANHANDLE OF NEBRASKA...

CITY           SKY/WX    TMP DP  RH WIND       PRES   REMARKS
PINE RIDGE     MOCLDY    35  28  75 W12       29.60R WCI  27
CHADRON        CLOUDY    35  25  66 W16       29.64F WCI  25
ALLIANCE       MOCLDY    30  24  78 W15       29.64R WCI  19
SIDNEY         MOCLDY    33  26  75 NW17      29.69R WCI  22
WHITECLAY        N/A     33  26  74 W16         N/A  WCI  23
CRESCENT LAKE    N/A     34  27  76 NW14G21     N/A  WCI  25
LISCO            N/A     35  27  73 W14         N/A  WCI  25
BIG SPRINGS      N/A     35  31  85 W6          N/A  WCI  30
$$

...OBSERVATIONS IN NORTH CENTRAL NEBRASKA...

CITY           SKY/WX    TMP DP  RH WIND       PRES   REMARKS
VALENTINE      CLOUDY    38  31  76 W13       29.52S WCI  30
THEDFORD       MOCLDY    37  33  87 W16       29.55S WCI  27
AINSWORTH      CLOUDY    37  33  85 NW16      29.51S WCI  27
O`NEILL        CLOUDY    38  38  97 NW14G21   29.48S WCI  30
BROKEN BOW     CLOUDY    38  33  82 NW18      29.53S WCI  28
BROWNLEE         N/A     36  33  88 W10         N/A  WCI  29
SPRINGVIEW       N/A     38  33  84 NW10G17     N/A  WCI  31
BREWSTER         N/A     38  34  87 W12         N/A  WCI  30
ROSE             N/A     38  37  97 SW9         N/A  WCI  31
SARGENT          N/A     38  35  88 W5G14       N/A  WCI  34
COMSTOCK         N/A     41  37  87 NW12        N/A
CHAMBERS         N/A     38  37  95 W8G15       N/A  WCI  32
EWING            N/A     38  37  97 CALM        N/A
$$

...OBSERVATIONS IN SOUTHWEST NEBRASKA AND FAR NORTHEAST COLORADO...

CITY           SKY/WX    TMP DP  RH WIND       PRES   REMARKS
WRAY           CLOUDY    37  31  79 NW20G25   29.69S WCI  26
HOLYOKE        FAIR      37  30  75 NW16G28   29.67F WCI  28
IMPERIAL       CLOUDY    37  30  75 NW18G30   29.65R WCI  27
OGALLALA       CLOUDY    37  31  79 W16       29.63R WCI  28
NORTH PLATTE   CLOUDY    34  31  88 W6        29.59S WCI  29
MCCOOK         CLOUDY    39  32  76 W14       29.62R WCI  31
LEXINGTON      PTCLDY    36  33  89 NW10      29.57R WCI  28
PAXTON           N/A     37  33  87 W12         N/A  WCI  29
BRADY            N/A     36  32  86 S5          N/A  WCI  32
GOTHENBURG       N/A     37  32  83 W7          N/A  WCI  31
CALLAWAY         N/A     34  31  90 W13         N/A  WCI  25
$$

...NORTH PLATTE AREA...

CITY           SKY/WX    TMP DP  RH WIND       PRES   REMARKS
AIRPORT        CLOUDY    34  31  88 W6        29.59S WCI  29
DOWNTOWN         N/A     36  32  87 W3          N/A
$$

...SOME WEATHER OBSERVATIONS FROM AROUND THE REGION...

CITY           SKY/WX    TMP DP  RH WIND       PRES   REMARKS
DENVER         MOCLDY    28  22  78 SW5       29.74S WCI  23
LARAMIE        MOCLDY    20  12  71 NW10      29.71S WCI   9
CHEYENNE       CLEAR     25  16  68 NW10      29.71R WCI  15
SCOTTSBLUFF    MOCLDY    33  27  78 W14       29.69S WCI  23
RAPID CITY     MOCLDY    40  22  48 NW24G39   29.55R WCI  29
PIERRE         CLOUDY    37  33  85 NW16      29.45R WCI  28
WINNER         CLOUDY    38  35  89 W14       29.48S WCI  30
SIOUX FALLS    LGT RAIN  40  39  97 S10       29.45F WCI  33
OMAHA          LGT RAIN  42  41  96 SE14      29.55S
GRAND ISLAND   CLOUDY    38  35  89 NW13      29.53S WCI  30
KANSAS CITY    LGT RAIN  42  41  96 SE13      29.58F FOG
WICHITA        LGT RAIN  45  43  93 S3        29.56F VSB 1
HAYS           MOCLDY    43  30  61 NW13      29.60R
LIBERAL        PTCLDY    39  32  75 NW15      29.71R WCI  31
GOODLAND       PTCLDY    35  28  75 NW16      29.68R WCI  25
$$



USA.gov is the U.S. government's official web portal to all federal, state and local government web resources and services.